Weather History for Gulfport, MS

Change the Weather History Date:

Monday, November 21, 2011

  Actual Average Record
Temperature  
Mean Temperature 72 °F -  
Max Temperature 77 °F 68 °F 82 °F (1996)
Min Temperature 66 °F 47 °F 30 °F (1981)
Cooling Degree Days 6    
Growing Degree Days 22 (Base 50)    
Moisture  
Dew Point 69 °F    
Average Humidity 93    
Maximum Humidity 100    
Minimum Humidity 76    
Precipitation  
Precipitation 0.02 in - - ()
Sea Level Pressure  
Sea Level Pressure 30.16 in    
Wind  
Wind Speed 7 mph (ESE)    
Max Wind Speed 14 mph    
Max Gust Speed -    
Visibility 4 miles    
Events Fog , Rain    
Averages and records for this station are not official NWS values.
T = Trace of Precipitation, MM = Missing Value Source: NWS Daily Summary

Daily Weather History Graph

Daily Weather History Graph

Search for Another Location

Airport:

Trip Planner

Search our weather history database for the weather conditions in past years. The results will help you decide how hot, cold, wet, or windy it might be!

Date:

Astronomy

Nov. 21, 2011 Rise Set
Actual Time 6:26 AM CST 4:57 PM CST
Civil Twilight 6:01 AM CST 5:22 PM CST
Nautical Twilight 5:31 AM CST 5:52 PM CST
Astronomical Twilight 5:03 AM CST 6:20 PM CST
Moon 2:19 AM CST (11/21) 2:07 PM CST (11/21)
Length of Visible Light 11h 21m
Length of Day
10h 30m
Waning Crescent, 17% of the Moon is Illuminated
Nov 21
Waning Crescent
Nov 25
New
Dec 2
First Quarter
Dec 10
Full
Dec 17
Last Quarter

Hourly Weather History & Observations

Time (CST) Temp. Dew Point Humidity Pressure Visibility Wind Dir Wind Speed Gust Speed Precip Events Conditions
12:53 AM 66.9 °F 66.0 °F 97% 30.18 in 8.0 mi SE 6.9 mph - N/A   Clear
1:24 AM 68.0 °F 66.2 °F 94% 30.17 in 7.0 mi SE 9.2 mph - N/A   Partly Cloudy
1:38 AM 68.0 °F 66.2 °F 94% 30.17 in 8.0 mi SE 9.2 mph - N/A   Mostly Cloudy
1:53 AM 68.0 °F 66.9 °F 96% 30.17 in 8.0 mi SE 8.1 mph - N/A   Mostly Cloudy
2:03 AM 69.8 °F 66.2 °F 88% 30.17 in 8.0 mi SE 8.1 mph - N/A   Overcast
2:24 AM 69.8 °F 66.2 °F 88% 30.17 in 5.0 mi SE 6.9 mph - N/A   Overcast
2:53 AM 69.1 °F 68.0 °F 96% 30.18 in 3.0 mi ESE 3.5 mph - N/A   Overcast
3:43 AM 69.8 °F 68.0 °F 94% 30.18 in 1.8 mi Calm Calm - 0.01 in   Overcast
4:01 AM 69.8 °F 68.0 °F 94% 30.19 in 2.0 mi Calm Calm - N/A   Overcast
4:09 AM 69.8 °F 68.0 °F 94% 30.19 in 1.2 mi North 3.5 mph - N/A   Overcast
4:33 AM 69.8 °F 66.2 °F 88% 30.19 in 0.8 mi Calm Calm - N/A   Mist
4:53 AM 68.0 °F 66.9 °F 96% 30.18 in 0.5 mi ENE 3.5 mph - N/A Fog Fog
5:05 AM 69.8 °F 66.2 °F 88% 30.19 in 0.2 mi Calm Calm - N/A Fog Fog
5:36 AM 69.8 °F 66.2 °F 88% 30.20 in 0.5 mi NE 4.6 mph - N/A Fog Fog
5:53 AM 69.1 °F 68.0 °F 96% 30.20 in 0.5 mi ENE 3.5 mph - N/A Fog Fog
6:14 AM 69.8 °F 68.0 °F 94% 30.20 in 0.2 mi Calm Calm - N/A Fog Fog
6:53 AM 69.1 °F 68.0 °F 96% 30.21 in 0.2 mi ESE 4.6 mph - N/A Fog Fog
7:53 AM 70.0 °F 69.1 °F 97% 30.24 in 0.2 mi NE 3.5 mph - N/A Fog Fog
8:11 AM 69.8 °F 69.8 °F 100% 30.24 in 1.0 mi Calm Calm - N/A   Overcast
8:28 AM 69.8 °F 69.8 °F 100% 30.25 in 2.0 mi Calm Calm - N/A   Overcast
8:41 AM 71.6 °F 69.8 °F 94% 30.25 in 3.0 mi Calm Calm - N/A   Overcast
8:53 AM 72.0 °F 71.1 °F 97% 30.25 in 3.0 mi NE 3.5 mph - N/A   Overcast
9:49 AM 71.6 °F 69.8 °F 94% 30.25 in 2.5 mi Calm Calm - N/A Rain Light Rain
9:53 AM 72.0 °F 71.1 °F 97% 30.25 in 4.0 mi Calm Calm - 0.02 in Rain Light Rain
10:53 AM 75.9 °F 70.0 °F 82% 30.22 in 10.0 mi SE 11.5 mph - 0.00 in   Mostly Cloudy
11:53 AM 77.0 °F 70.0 °F 79% 30.19 in 10.0 mi SE 10.4 mph - N/A   Partly Cloudy
12:38 PM 75.2 °F 69.8 °F 83% 30.16 in 10.0 mi ESE 11.5 mph - N/A   Mostly Cloudy
12:53 PM 75.9 °F 69.1 °F 79% 30.16 in 10.0 mi ESE 13.8 mph - N/A   Mostly Cloudy
1:53 PM 75.9 °F 68.0 °F 76% 30.13 in 10.0 mi ESE 10.4 mph - N/A   Scattered Clouds
2:53 PM 77.0 °F 69.1 °F 76% 30.12 in 10.0 mi ESE 11.5 mph - N/A   Scattered Clouds
3:53 PM 75.0 °F 69.1 °F 82% 30.12 in 10.0 mi SE 10.4 mph - N/A   Scattered Clouds
4:53 PM 72.0 °F 69.1 °F 91% 30.11 in 10.0 mi ESE 10.4 mph - N/A   Scattered Clouds
5:53 PM 71.1 °F 69.1 °F 93% 30.11 in 8.0 mi ESE 9.2 mph - N/A   Overcast
6:53 PM 71.1 °F 69.1 °F 93% 30.12 in 3.0 mi ESE 9.2 mph - N/A   Overcast
7:02 PM 71.6 °F 69.8 °F 94% 30.11 in 2.5 mi ESE 10.4 mph - N/A   Overcast
7:53 PM 70.0 °F 68.0 °F 93% 30.10 in 2.5 mi SE 10.4 mph - N/A   Overcast
8:06 PM 69.8 °F 68.0 °F 94% 30.10 in 0.5 mi SE 11.5 mph - N/A Fog Fog
8:53 PM 69.1 °F 68.0 °F 96% 30.09 in 0.5 mi SE 12.7 mph - N/A Fog Fog
9:05 PM 69.8 °F 69.8 °F 100% 30.09 in 1.5 mi SE 13.8 mph - N/A   Overcast
9:12 PM 69.8 °F 69.8 °F 100% 30.09 in 0.5 mi SE 11.5 mph - N/A Fog Fog
9:53 PM 70.0 °F 69.1 °F 97% 30.10 in 0.5 mi SE 11.5 mph - N/A Fog Fog
10:00 PM 69.8 °F 69.8 °F 100% 30.10 in 1.2 mi ESE 12.7 mph - N/A   Overcast
10:16 PM 69.8 °F 69.8 °F 100% 30.10 in 2.5 mi SE 11.5 mph - N/A   Overcast
10:24 PM 69.8 °F 69.8 °F 100% 30.10 in 3.0 mi SE 10.4 mph - N/A   Overcast
10:35 PM 69.8 °F 69.8 °F 100% 30.10 in 2.0 mi SE 12.7 mph - N/A   Overcast
10:53 PM 70.0 °F 68.0 °F 93% 30.09 in 4.0 mi SE 11.5 mph - N/A   Overcast
11:53 PM 70.0 °F 68.0 °F 93% 30.06 in 9.0 mi SE 12.7 mph - N/A   Scattered Clouds